Notices

What's New in latest Release from April 7th, 2021:

- Updated Glossary, including Speed of Maximum Gust, and Total Hourly Precipitation

- Updated national and regional climate services offices contacts and prices information

- Addition of station inventory lists for 1981-2010, 1971-2000, and 1961-1990 Normals.

If you haven't already, please take our survey and provide feedback about our website: https://eccc.sondage-survey.ca/f/LanguageSelection.aspx?s=442ca660-fcf1-47c0-95a9-59707d6fd709

Hourly Data Report for September 12, 2017

TORONTO CITY
ONTARIO

43°40'00.000" N
79°24'00.000" W
112.50 m
6158355
71508
XTO

Download Data

Hourly Data (September 2017)
Hourly Data Report for September 12, 2017
TIME
LST
Temp Definition
°C
Dew Point Definition
°C
Rel Hum Definition
%
Precip. Amount Definition
mm

Wind Dir Definition
10's deg

Wind Spd Definition
km/h
Visibility Definition
km
Stn Press Definition
kPa
Hmdx Definition


Wind Chill Definition


Weather Definition


00:00 14.1 11.8 86 0.0 LegendMM LegendMM   100.69     LegendNANA
01:00 14.0 11.3 84 0.0 LegendMM LegendMM   100.61     LegendNANA
02:00 13.5 11.0 85 0.0 LegendMM LegendMM   100.54     LegendNANA
03:00 13.0 10.7 86 0.0 LegendMM LegendMM   100.51     LegendNANA
04:00 12.4 10.5 89 0.0 LegendMM LegendMM   100.50     LegendNANA
05:00 13.4 11.0 85 0.0 LegendMM LegendMM   100.48     LegendNANA
06:00 13.1 9.8 80 0.0 LegendMM LegendMM   100.48     LegendNANA
07:00 13.3 10.1 81 0.0 LegendMM LegendMM   100.47     LegendNANA
08:00 17.0 8.9 59 0.0 LegendMM LegendMM   100.46     LegendNANA
09:00 19.2 7.6 47 0.0 LegendMM LegendMM   100.44     LegendNANA
10:00 21.3 7.8 42 0.0 LegendMM LegendMM   100.42     LegendNANA
11:00 21.1 10.2 50 0.0 LegendMM LegendMM   100.35     LegendNANA
12:00 21.2 10.1 49 0.0 LegendMM LegendMM   100.33     LegendNANA
13:00 22.0 10.6 48 0.0 LegendMM LegendMM   100.26     LegendNANA
14:00 22.5 8.3 40 0.0 LegendMM LegendMM   100.16     LegendNANA
15:00 22.7 9.7 44 0.0 LegendMM LegendMM   100.10     LegendNANA
16:00 22.2 8.6 42 0.0 LegendMM LegendMM   100.03     LegendNANA
17:00 22.4 8.7 42 0.0 LegendMM LegendMM   99.98     LegendNANA
18:00 21.6 8.7 44 0.0 LegendMM LegendMM   99.95     LegendNANA
19:00 19.5 9.0 51 0.0 LegendMM LegendMM   99.94     LegendNANA
20:00 18.1 10.7 62 0.0 LegendMM LegendMM   99.97     LegendNANA
21:00 17.2 10.8 66 0.0 LegendMM LegendMM   99.93     LegendNANA
22:00 16.9 11.3 70 0.0 LegendMM LegendMM   99.91     LegendNANA
23:00 16.3 11.4 73 0.0 LegendMM LegendMM   99.88     LegendNANA

Notes on Data Quality.

Legend

  • E = Estimated
  • M = Missing
  • NA = Not Available*
  • [empty] = Indicates an unobserved value
Date modified: